User: anonymous   Login
Location: Mentone
(34.5413°N, 85.5351°W)
Time: 00:14:39
(UTC-05:00)
Language:

ATLAS 5 CENTAUR R/B - Orbit

View from above orbital plane
View from above orbital plane
View from above satellite
View from above satellite

Ground track
Ground track

The orbit data is extracted from the following two-line orbital elements,

1 31702U 07027B   15082.86945803 0.00000700  00000-0  28889-3 0    06
2 31702  63.3760  79.7788 0179000 353.8867   6.1133 14.18314663    04
Epoch (UTC): 23 March 2015 20:52:01
Eccentricity: 0.0179000
inclination: 63.3760°
perigee height: 702 km
apogee height: 960 km
right ascension of ascending node: 79.7788°
argument of perigee: 353.8867°
revolutions per day: 14.18314663
mean anomaly at epoch: 6.1133°
orbit number at epoch: 0

The dashed part of the orbit path shows where the satellite is in the earth's shadow,  

DLR